Location: Meanaryar
(48.4161°N, 4.7315°W)
Time: 10:55:07
(UTC+00:00)

NOSS 3-1 (A) - Pass Details

Date: 18 September 2020
Orbit: 745 x 1467 km, 63.4° (Epoch: 08 October)

Event Time Altitude Azimuth Distance (km) Brightness Sun altitude
Rises 18:52:32 0° 238° (WSW) 3,297 7.2 -5.5°
Reaches altitude 10° 18:54:52 10° 243° (WSW) 2,431 6.5 -5.9°
Maximum altitude 19:00:20 53° 321° (NW) 1,117 4.2 -6.7°
Drops below altitude 10° 19:06:49 10° 38° (NE) 2,871 5.7 -7.8°
Sets 19:09:48 0° 43° (NE) 3,948 6.4 -8.3°
